Home > Weather > Yellowknife > Past weeks

Flag for Canada Past Weather in Yellowknife, Northwest Territories, Canada — Yesterday and Last 2 Weeks

Now
45 °F

Overcast.


Feels Like: 40 °F
Forecast: 43 / 54 °F
Wind: 8 mph from Northwest

Location: Yellowknife

Current Time: May 31, 2016 at 4:05:39 AM

Latest Report: May 31, 2016 at 3:00 AM


Visibility: 15 mi

Pressure: 30.19 "Hg

Humidity: 93%

Dew Point: 43 °F

Location of YellowknifeLocation

Past Weather in Yellowknife — Graph

°F

Yellowknife Temperature Yesterday

Maximum temperature yesterday: 57 °F (at 5:00 PM)
Minimum temperature yesterday: 43 °F (at 3:00 AM)
Average temperature yesterday: 49 °F

High & Low Weather Summary for the Past Weeks

 TemperatureHumidityPressure
High63 °F (May 27, 5:00 PM)100% (May 22, 1:00 AM)30.42 "Hg (May 22, 1:00 AM)
Low30 °F (May 19, 3:00 AM)23% (May 25, 6:00 PM)29.70 "Hg (May 22, 9:00 PM)
Average46 °F62%30.05 "Hg
* Reported May 16 2:00 AM — May 31 2:00 AM, Yellowknife, Weather by CustomWeather, © 2016

Note: Actual official high and low records may vary slightly from our data, if they occured in-between our weather recording intervals... More about our weather records

Advertising

Yellowknife Weather History for the Previous 24 Hours

Scroll right to see more
 ConditionsComfort  
Time TempWeatherWind HumidityBarometerVisibility
2:00 AM
Tue, May 31
45 °FSprinkles. Overcast.6 mph93%30.19 "Hg15 mi
1:00 AM46 °FSprinkles. Mostly cloudy.6 mph87%30.20 "Hg15 mi
12:00 AM46 °FSprinkles. Mostly cloudy.6 mph87%30.21 "Hg15 mi
11:00 PM
Mon, May 30
48 °FMostly cloudy.8 mph82%30.21 "Hg15 mi
10:00 PM50 °FMostly cloudy.9 mph76%30.22 "Hg15 mi
9:00 PM52 °FMostly cloudy.9 mph72%30.22 "Hg15 mi
8:00 PM52 °FMostly cloudy.9 mph72%30.22 "Hg15 mi
7:00 PM54 °FMostly cloudy.9 mph63%30.22 "Hg15 mi
6:00 PM55 °FBroken clouds.9 mph59%30.22 "Hg15 mi
5:00 PM57 °FOvercast.6 mph55%30.22 "Hg15 mi
4:00 PM55 °FBroken clouds.8 mph55%30.22 "Hg15 mi
3:00 PM55 °FPartly sunny.3 mph55%30.22 "Hg15 mi
2:00 PM54 °FMostly cloudy.2 mph58%30.22 "Hg15 mi
1:00 PM52 °FMostly cloudy.5 mph58%30.22 "Hg15 mi
12:00 PM50 °FMostly cloudy.8 mph62%30.22 "Hg15 mi
11:00 AM48 °FMostly cloudy.9 mph66%30.21 "Hg15 mi
10:00 AM46 °FMostly cloudy.12 mph71%30.20 "Hg15 mi
9:00 AM45 °FMostly cloudy.14 mph71%30.19 "Hg15 mi
8:00 AM43 °FOvercast.13 mph76%30.19 "Hg15 mi
7:00 AM43 °FPartly sunny.17 mph76%30.18 "Hg15 mi
6:00 AM43 °FBroken clouds.13 mph76%30.17 "Hg15 mi
5:00 AM43 °FPartly sunny.15 mph76%30.16 "Hg15 mi
4:00 AM43 °FPassing clouds.12 mph76%30.15 "Hg15 mi
Weather by CustomWeather, © 2016

See weather overviewHow to use our weather pages